CAPE
119 267 2550 2890 2142 2243 1638 1624 1716 1696 1698 1724 1733 1883 2345 2327 2096 2044 2265 2376 2378 2569 2694 2728 2932 2941 2954 2948 2915 2560 2132 2994 2909 2507 2441 2474 2319 2254 2470 3037 3500 2601 3066
238 279 2193 3060 2846 2560 2365 2089 1970 1792 1826 1820 1822 1863 2143 2303 2159 2006 1728 1878 2174 2183 2648 2845 2527 2565 2602 2965 2695 3264 2389 2709 3526 3444 3025 2466 2725 2138 3095 2798 2363 2014 2107
401 619 798 2701 3007 2486 2853 2486 2126 1758 1795 1944 1913 1932 2111 2153 1961 1899 1838 1783 1796 2033 2086 2629 2682 2389 2377 2484 2300 2542 2401 2204 2741 3042 3481 1170 1972 2747 3256 3274 3231 2890 2891
589 680 878 2532 2818 2977 2986 3006 2711 2117 1997 2133 2142 2036 2071 2038 1847 1788 1731 1740 1767 1796 2057 2039 2573 2850 2294 2175 2141 2224 2258 2232 2093 2361 2513 706 891 2119 2611 2780 2756 2755 2521
513 874 1913 2731 3092 3258 3016 2944 2668 2554 2463 2250 2187 2061 1897 1817 1729 1610 1595 1691 1864 1829 1804 2022 2348 2455 2743 2332 2098 2162 2158 2129 2001 2129 731 1026 737 1742 1854 1900 1914 2304 2514
419 898 2037 2766 2313 2719 2615 2477 2220 1966 1819 1937 1930 1859 1755 1652 1541 1694 1990 2105 2125 2167 2097 2201 2119 2467 2673 2783 2259 2298 2477 2526 2155 1138 792 757 844 2124 2471 2870 3147 3016 2619
853 1172 1351 2676 2622 2481 2479 2310 2022 1689 1551 1646 1763 1787 1878 1950 1942 1789 1596 1733 1753 1657 1845 1920 1916 2045 2177 2530 2515 2556 2926 2463 2647 1042 899 1170 1817 2898 3218 2842 2982 3124 2627
971 988 1372 2228 2411 1967 2058 1848 1866 1726 1533 1598 1681 1672 1535 1575 1721 1390 1322 1577 1636 1913 1593 1890 1615 1721 1886 2125 2279 2420 1461 1400 1601 1235 1138 1383 3023 3335 3045 3211 2822 2876 3037
745 1086 849 1175 1699 1860 2045 1856 1720 1664 1400 1355 1377 1359 1431 1457 1515 1440 1279 1534 1705 1512 1409 1591 1600 1469 1552 1764 1861 1993 1859 1822 1755 1915 1013 2468 3563 3191 3144 3131 2927 2963 2881
927 841 903 724 1112 1567 1529 1584 1178 1239 1306 1130 1137 1241 1409 1632 1592 1575 1425 1564 1365 1338 1027 1286 1487 1457 1505 1526 1606 1790 1956 2188 1877 1933 1333 2521 2859 2846 2550 2223 3052 2988 2705
750 481 540 635 674 1494 1530 1454 1234 662 262 259 173 815 1429 807 968 1266 1485 1125 1384 1496 1419 1167 1649 1315 1577 1573 1440 1647 1502 1371 1158 1645 1293 2645 2933 2537 2611 2549 2391 2919 2847
596 660 880 861 842 1196 894 481 430 8 14 3 42 0 576 813 488 584 995 1321 1113 947 1185 1380 1488 1339 1269 1135 1302 1475 1060 1479 1387 1229 1296 2079 2057 1497 1824 2131 2304 2688 2950
562 588 670 737 1294 1227 273 11 44 27 0 0 0 0 88 1233 838 892 1361 1339 962 935 1599 1100 1338 1079 732 962 1249 815 932 1382 992 1447 1504 2511 1892 1660 1682 1591 2150 2320 2814
631 890 568 800 972 1434 737 0 3 0 0 0 0 4 306 1071 1248 1512 2139 1509 870 1786 1272 1536 963 1274 581 608 549 514 821 1171 1286 1495 1879 2277 1516 1524 1429 1591 2191 2130 2253
822 938 788 950 1628 1799 1056 114 0 13 0 0 45 160 377 1321 935 1438 1979 1174 2176 1573 1032 1443 1562 1053 1490 743 430 539 794 1471 1256 1290 2167 2901 2717 2457 2323 2424 2744 2474 2188
1058 1239 1308 1321 1401 1388 1775 1522 573 1004 891 983 1528 1458 1296 1291 1650 1080 1523 1453 1472 1500 1799 1732 1270 1500 402 426 593 493 627 640 817 1012 1008 2268 3102 2993 2571 2564 2888 3012 2467
1186 1357 1693 1786 1967 1906 1880 1855 1150 680 1434 2102 607 324 1111 1520 1568 1748 1517 941 1183 2062 1195 1654 998 756 1048 1213 910 697 666 557 853 1174 1311 971 2159 2881 2845 2331 2747 3551 3295
1201 1443 1570 1315 1711 1793 2143 1448 494 986 784 1511 1719 1319 700 724 1412 2042 1567 972 917 952 1827 773 869 674 1064 1267 1089 595 949 884 1155 1222 1566 1610 1790 1828 2435 2847 3312 3749 2989
1552 1598 1715 1619 1440 1949 1924 1932 1410 1622 1369 1074 1780 1296 1620 801 712 1611 1046 2120 1754 1583 1761 1409 1033 1940 907 851 1228 807 1019 1339 1604 1165 1421 1858 1583 1767 2228 3116 3368 3706 2639
1623 1738 1913 1940 1905 1984 1916 1863 1707 1161 1776 2060 1967 1514 1694 834 834 2259 1859 2079 1620 1693 1775 1677 2446 1318 1216 1164 1225 1042 1681 1616 1904 1358 1134 1194 1458 1563 1268 2654 2626 2433 2860
1710 1910 2207 2143 2394 2297 2001 2814 1844 2042 2256 2007 1763 1895 1424 1382 1086 1207 1296 1564 2461 1717 2098 1753 1720 1560 1362 1387 1201 1053 943 1326 1233 1288 1468 1469 1780 1846 1669 1264 1913 1642 2096
1953 2086 2380 2546 2694 2733 2295 2023 2488 2486 2039 1858 1612 1842 1799 1704 1635 2059 2210 1841 1579 2470 2112 2204 2194 2655 851 1441 1706 1932 1274 331 1321 953 1017 1235 1411 1575 1764 1521 1604 1807 1945
1977 2239 2476 2841 2953 3004 2576 2255 2298 2445 2417 2865 2182 2013 2160 1876 1815 2061 2093 2195 1609 1913 1645 2595 1991 1807 1601 930 1041 1930 836 558 398 603 579 500 1204 1374 1490 1594 1689 1963 2200
2019 2374 2547 3051 3182 3149 3067 2993 3100 3234 2380 3357 1985 1810 1887 2550 2273 2115 1948 1669 2019 1565 2725 2231 1690 1917 2309 1620 519 1291 1570 1481 686 544 1172 585 983 1207 1211 1393 1627 1855 1958
2158 2355 2536 3129 3543 3380 3307 3402 2746 2850 2768 1998 1932 3650 2760 2263 2504 2005 2212 2466 2537 1828 2269 2293 1938 3001 1636 551 299 473 1594 1003 1387 935 1435 693 907 811 828 1167 1171 1281 1511
1975 2288 2645 3316 3761 3775 3533 3502 3475 3268 2635 2624 2585 1953 1887 1899 1914 2492 2139 2468 3155 2852 2516 2053 2515 2216 2178 501 389 1200 1366 765 601 1302 1154 695 958 1092 1035 996 1140 1482 1502
CIN
-15 -47 0 0 0 0 0 0 0 0 0 0 0 0 0 0 0 0 0 0 0 0 0 0 0 0 0 0 0 0 -6 0 0 0 0 0 -4 -8 -5 -6 -3 0 0
-4 -47 0 0 0 0 0 0 0 0 0 0 0 -2 0 0 0 -2 -14 -7 0 -2 0 0 0 0 0 0 0 0 0 0 0 0 0 0 0 -6 0 -3 -7 -2 -3
-3 -9 -15 0 0 0 0 0 0 0 0 0 0 0 0 0 -1 -5 -3 -3 -4 -3 0 0 0 0 0 -1 0 0 0 -6 -8 -18 -13 -7 -6 0 0 0 0 0 0
0 -2 -3 0 0 0 0 0 0 0 0 0 0 0 0 0 -1 -3 -2 -1 -1 0 0 0 0 0 0 -5 -9 -6 -4 -13 -35 -38 -13 -8 -40 -19 -4 -1 -1 -1 -4
0 0 0 0 0 0 0 0 0 0 0 0 0 0 0 0 0 -1 -4 -2 0 0 0 0 0 0 0 0 -1 -5 -10 -19 -40 -38 -1 0 -32 -34 -38 -29 -28 -12 -4
-2 0 0 0 0 0 0 0 0 0 0 0 0 0 0 0 -1 0 -1 0 0 0 0 0 0 0 0 0 0 0 0 -13 -36 -1 0 -8 -7 -29 -3 0 0 0 -5
-5 -3 -5 0 0 0 0 0 0 0 0 0 0 0 0 0 0 -1 -3 -2 0 0 0 0 0 0 -3 0 0 0 0 -12 -7 0 -1 0 -20 -3 0 0 0 0 -3
-30 0 -12 0 0 -1 0 -1 -2 -5 -5 -5 -4 -6 -2 0 -1 -1 -6 -3 0 0 0 0 0 0 0 0 -3 -1 -21 -35 -4 -1 -1 -1 -26 0 0 0 0 0 0
-7 -6 -18 0 0 0 0 0 -2 -2 -3 -5 -3 -1 0 0 0 -1 -4 0 0 0 0 0 0 0 0 0 0 -1 -8 -22 -11 -7 0 -5 -15 0 0 0 0 0 0
-17 -2 0 -1 0 0 0 0 -3 0 0 0 -1 0 0 0 0 -1 -5 -2 0 0 0 0 0 0 0 0 0 -1 -5 -12 -2 -5 -3 -24 -40 -10 -1 -11 0 0 0
0 -3 -1 0 -1 0 -24 -4 -5 -26 -57 -60 -71 -34 -2 -1 -25 0 -3 -13 -1 -1 0 0 0 -2 0 -2 -14 -5 -16 -2 -3 -6 -27 -109 -52 -20 -9 -2 -3 0 0
0 0 -2 -3 -2 -20 -29 -73 -66 -126 -127 -59 -110 0 -7 -16 -14 -10 -9 -11 -9 -9 -2 0 0 -6 -21 0 -21 -39 -23 -4 -18 -5 -26 -112 -78 -68 -47 -24 -7 0 0
0 -5 0 0 0 -30 -90 -67 -120 -96 0 0 0 -14 -32 0 0 -2 -1 -26 -60 -7 0 -2 -2 0 -1 -22 -23 -99 -4 -20 -114 -15 -69 -96 -79 -67 -56 -57 -16 -4 0
-1 -5 0 0 0 -2 -2 0 -87 0 0 0 0 -135 -14 0 -8 -17 -38 -7 -31 -2 -14 -1 -31 -15 -50 -3 -4 0 -1 -4 -25 -11 -50 -100 -106 -83 -75 -52 -19 -16 -4
-2 -11 -9 -13 -12 0 -2 -83 0 -18 0 -32 -58 -57 -12 -1 -59 -57 -24 -2 0 -1 -44 -1 -12 -2 -8 0 0 0 -1 -3 -7 -6 -27 -82 -72 -56 -47 -31 -4 -4 -9
-2 -5 -12 -31 -6 0 0 -2 -15 0 0 -1 -1 -6 0 -31 -6 -53 -26 -24 -2 -25 -1 -11 -1 -14 -1 0 0 -1 0 -1 0 -1 0 -36 -83 -68 -60 -42 -10 0 -1
-1 -4 -2 -2 -3 0 0 0 -6 0 -6 0 -61 -74 -17 -1 -8 -2 -17 -39 -2 -6 0 0 0 0 -7 -9 0 -1 0 -1 0 0 -1 0 -41 -105 -86 -79 -33 0 0
0 0 0 0 -3 -1 -15 -3 -54 -1 0 -38 -9 -3 -1 0 0 0 -8 -26 -5 -1 -8 0 0 0 -3 -15 -26 0 -1 0 -3 -1 0 -1 -1 -16 -99 -74 -33 0 0
-1 0 0 0 0 0 0 -1 0 -31 -4 -1 -5 -10 -6 0 0 0 -31 -13 -1 -5 -13 -15 -2 -18 0 -1 -10 -3 0 -29 -4 0 0 -7 0 -1 -15 -68 -38 -6 -7
0 0 0 0 0 -1 0 0 -1 0 -1 -4 -1 -4 -1 0 0 -1 -15 0 -1 -3 -39 -9 -4 -20 0 0 -10 -59 -6 -11 -14 0 0 0 0 -1 0 -11 -36 -31 -27
0 0 0 0 0 0 0 -2 -1 -13 -18 -2 -26 0 0 0 0 0 0 0 0 0 0 0 0 -1 -4 -3 -4 0 0 -3 -6 0 -1 0 -1 -2 -1 -1 0 0 -56
0 0 0 0 0 0 0 0 -8 -19 -15 -1 0 0 0 0 0 0 0 -1 0 0 0 0 0 -1 -21 -5 -17 -4 -13 -140 -2 -2 0 -1 0 0 0 0 0 -1 0
0 0 -2 -5 0 -1 0 0 0 0 -1 -1 -8 -1 -3 -13 0 -1 0 0 0 0 -16 0 0 0 -9 -23 -36 -2 -4 -57 -104 -1 -7 -22 -1 0 -1 -1 0 0 0
0 0 0 -3 -3 -1 -2 0 0 -1 -1 -5 -4 -8 -1 0 0 0 -3 0 0 0 0 -1 0 -1 -8 -14 -87 -6 0 -1 0 -10 -1 -13 -16 0 0 0 -1 0 0
0 0 -1 -3 -2 -1 -3 -1 0 -1 -3 -2 0 -8 0 -1 0 -1 0 0 0 0 0 0 -1 0 -38 -75 -105 -78 -4 0 -3 -7 -49 -100 0 -14 -3 -1 0 -1 0
-7 -2 0 -5 -6 -7 -4 -6 -1 -2 -2 -10 -2 0 0 -1 -4 -5 0 0 0 0 -1 0 0 -10 0 -125 -121 -19 -4 -49 -62 -3 -41 -47 -21 -13 0 0 0 0 0
Wind_Speed
16 17 13 14 16 16 15 14 15 14 13 13 13 13 15 14 15 14 14 14 14 12 12 11 11 11 12 13 14 15 15 14 15 16 16 16 14 11 9 12 16 17 16
20 18 13 15 15 16 15 15 14 14 13 12 12 11 13 13 13 13 12 13 12 11 10 12 11 11 11 12 13 15 14 13 14 16 17 16 14 13 12 16 19 14 15
20 17 15 15 16 16 15 13 14 14 13 11 11 10 10 10 10 11 10 10 9 10 9 8 10 11 11 11 11 12 12 11 10 13 17 13 13 12 14 16 15 14 13
19 18 17 14 15 15 15 14 13 14 12 10 9 9 8 8 7 7 8 6 6 7 7 7 7 10 10 11 10 10 10 8 8 9 10 11 13 11 12 12 12 12 13
18 19 18 14 15 16 16 14 13 11 11 10 9 8 7 6 5 5 5 4 5 6 7 7 8 7 10 10 10 10 10 8 7 9 5 10 10 10 11 11 11 10 7
18 20 16 15 15 16 15 14 13 11 11 10 8 7 6 5 4 4 5 5 4 3 6 7 6 6 7 10 11 10 9 7 9 5 5 5 11 13 10 5 11 11 10
19 20 17 13 13 14 14 13 12 11 9 8 7 6 5 4 3 3 4 5 5 4 3 5 5 5 4 7 10 10 8 7 10 5 8 5 13 12 9 8 9 10 9
20 19 15 14 14 13 13 12 10 9 7 6 4 3 2 1 3 4 5 6 5 5 4 3 4 4 4 6 7 9 5 7 9 6 5 8 15 9 9 9 8 8 8
14 19 11 14 11 13 12 11 8 7 4 2 2 2 3 4 6 6 6 5 5 5 4 4 4 4 4 5 6 7 7 9 10 3 8 10 14 11 9 7 7 7 7
16 17 14 14 11 12 11 12 10 9 7 5 3 5 7 10 12 12 10 8 6 5 5 4 4 4 5 5 4 6 7 10 11 7 7 10 14 11 8 6 7 7 7
15 14 15 14 14 13 7 9 10 9 7 8 7 9 11 10 3 13 14 13 7 5 5 5 6 6 6 8 9 8 9 8 8 7 5 18 15 10 8 7 7 7 7
15 15 11 11 13 14 7 8 6 3 1 4 6 8 9 5 5 4 7 10 5 5 6 7 7 8 11 9 9 12 8 8 4 4 5 16 15 12 9 8 8 8 8
13 9 12 12 11 12 7 7 3 2 2 4 9 9 11 9 6 6 4 4 1 8 6 10 10 9 12 3 5 6 7 6 7 5 10 15 13 12 11 10 10 9 8
12 12 13 14 12 14 9 5 4 4 4 5 6 8 9 7 7 4 3 5 2 3 8 7 6 4 10 2 7 1 5 4 3 6 9 15 12 11 11 11 11 11 11
12 14 10 13 8 11 7 7 5 7 7 8 8 11 10 9 8 7 4 1 6 2 4 5 1 5 3 8 6 3 6 2 10 5 6 16 15 14 12 12 12 12 12
10 13 14 14 13 11 10 8 8 4 8 6 7 6 11 8 2 7 4 3 7 5 1 4 4 4 6 8 5 4 5 7 6 7 3 11 17 17 16 14 13 14 14
11 10 9 16 14 13 12 10 8 8 8 7 8 14 17 4 3 4 2 2 7 3 4 5 4 5 5 4 5 4 6 8 7 7 7 9 13 19 18 16 14 13 14
11 12 12 10 13 15 13 11 10 8 6 6 4 5 9 7 5 4 2 2 5 8 4 7 7 7 5 1 5 7 7 8 9 7 8 9 7 8 14 15 15 13 14
12 11 9 8 10 11 10 11 10 10 7 7 5 6 7 8 9 5 4 5 6 6 4 4 2 2 4 5 7 4 6 5 8 9 10 8 7 7 5 14 15 14 15
11 11 10 9 7 7 7 6 6 8 7 6 5 5 7 8 8 5 4 4 4 4 4 4 6 2 6 5 4 6 5 5 5 7 8 9 10 8 8 12 9 10 16
12 13 13 12 11 9 8 5 6 4 4 5 6 10 5 7 7 7 7 5 4 4 3 4 1 5 5 5 6 10 7 11 9 7 8 7 8 8 10 8 7 7 11
14 13 12 12 11 10 9 7 5 4 3 5 5 4 7 9 10 9 8 7 6 3 5 5 6 3 6 6 5 8 8 7 11 7 8 8 9 8 9 9 9 8 5
14 14 13 13 12 11 10 7 6 6 4 3 4 8 10 11 10 10 9 7 5 4 5 6 7 5 4 2 7 5 5 4 14 4 7 9 10 8 7 7 9 9 9
13 14 13 13 12 12 11 9 9 4 6 4 7 8 5 10 10 10 8 8 8 7 6 8 7 4 3 3 4 11 9 6 6 1 4 7 10 9 9 8 9 10 9
13 13 12 12 12 11 12 11 8 9 7 7 7 6 6 3 7 8 9 10 9 8 9 8 1 6 4 2 4 5 11 5 8 6 3 8 7 7 8 8 7 8 11
12 12 12 13 11 12 12 13 13 8 8 6 2 5 7 7 7 11 10 9 8 9 9 8 7 7 9 6 7 7 10 3 3 6 3 4 5 8 8 7 6 7 7
Wind_Direction
147 135 142 145 141 133 133 134 134 131 126 123 123 118 107 101 97 96 96 94 91 95 104 97 101 104 105 110 108 107 108 104 106 106 102 102 98 87 76 111 123 97 94
133 141 144 142 141 137 135 134 135 134 130 129 127 121 111 105 98 94 94 94 99 97 100 111 108 107 108 111 110 116 113 114 112 115 116 103 94 89 69 73 77 95 96
134 132 151 144 143 141 134 137 135 135 134 133 130 122 111 104 101 99 97 98 104 110 111 108 118 113 113 113 117 110 111 121 135 151 165 111 100 91 83 87 100 104 102
131 148 141 146 144 143 139 140 137 136 136 134 134 125 119 111 107 105 108 113 118 121 122 119 112 124 122 125 128 127 125 134 185 200 211 122 108 103 100 99 103 108 107
141 137 119 144 148 145 143 142 136 134 131 129 131 129 123 119 118 119 127 144 162 158 149 144 135 136 137 138 140 142 144 166 210 239 107 112 124 117 118 121 127 122 114
148 121 129 140 144 143 143 139 136 132 130 129 129 124 125 134 153 169 176 179 180 177 168 154 146 156 158 151 148 151 158 189 231 185 130 126 110 133 136 123 103 105 104
116 124 137 140 141 138 136 134 133 134 135 136 138 140 144 166 174 168 184 181 186 184 179 159 163 157 158 162 159 165 168 217 261 124 125 150 113 140 141 134 122 125 116
128 136 128 140 140 135 132 134 132 133 133 132 128 127 142 196 214 200 198 180 179 169 170 148 156 163 171 169 172 172 183 258 235 188 197 130 126 146 145 149 138 137 135
101 108 148 155 142 135 132 126 119 108 106 103 142 185 219 222 230 198 201 184 183 181 171 158 147 164 165 171 182 197 214 233 268 265 205 131 136 150 151 159 157 154 155
135 140 164 155 151 145 142 127 114 75 57 27 351 297 271 240 218 193 188 184 180 181 184 180 162 165 173 159 190 191 207 229 247 266 243 109 133 145 163 166 161 170 175
136 154 163 158 180 140 84 105 98 84 32 14 357 335 289 258 222 215 168 154 181 184 198 190 179 185 188 177 176 197 218 228 232 224 280 136 134 161 178 191 192 190 195
161 152 156 163 148 119 138 138 125 155 225 309 313 305 297 328 294 159 136 134 154 195 199 205 190 202 214 199 182 189 215 185 267 296 131 133 141 170 194 205 212 210 209
167 144 162 154 132 137 141 157 138 148 139 281 285 300 285 303 285 294 96 102 149 204 213 193 187 217 215 156 224 59 252 188 168 251 143 142 162 188 208 218 215 221 218
156 140 166 150 170 161 176 146 182 188 198 224 257 266 264 285 274 172 88 156 252 231 207 191 241 158 219 43 302 310 306 237 214 146 150 146 162 195 212 219 222 223 223
147 145 185 145 158 168 180 161 184 212 212 218 232 240 244 252 275 114 110 25 247 231 261 239 86 257 177 266 216 216 253 221 232 231 152 158 168 190 207 219 229 223 219
156 154 147 153 161 180 184 161 187 197 223 223 256 263 239 228 225 80 123 188 272 190 198 166 232 265 217 230 198 246 231 256 227 284 244 169 177 189 203 214 223 224 218
161 148 161 152 162 169 173 178 200 206 178 199 226 238 223 263 353 20 124 237 245 204 207 239 203 254 243 281 235 213 230 226 237 206 246 274 186 197 199 202 213 222 219
158 164 173 177 165 169 158 176 188 210 230 198 281 231 196 240 212 231 187 231 262 255 219 222 210 207 244 40 285 196 188 241 193 218 231 249 293 192 198 203 196 203 215
155 155 189 186 179 161 169 181 199 161 199 249 189 236 196 198 228 195 209 248 205 240 218 263 113 54 265 244 236 234 217 200 198 216 230 230 242 277 189 182 190 189 208
163 162 182 180 188 175 175 221 222 218 195 193 218 243 177 212 215 193 209 217 249 248 322 279 107 215 274 248 292 2 236 224 211 241 237 220 228 206 249 166 176 197 205
175 181 178 190 175 186 198 180 228 212 231 185 182 215 193 234 215 224 241 193 207 225 274 284 211 198 252 290 298 247 232 201 218 229 224 242 231 198 213 218 217 225 187
182 190 186 192 188 199 196 218 183 206 197 204 226 228 229 223 225 219 227 207 204 218 229 234 209 196 261 240 234 288 234 4 244 200 223 217 241 209 216 194 208 230 206
179 189 186 191 189 201 224 214 211 255 245 227 206 212 205 218 233 239 216 229 198 208 230 232 210 195 246 327 331 311 331 73 275 144 197 219 206 217 238 204 203 217 209
184 185 190 189 196 197 207 224 225 207 232 198 222 216 254 198 225 214 240 214 214 223 209 232 191 219 115 348 353 265 270 320 293 352 229 208 192 210 209 208 199 211 218
178 180 185 187 194 214 200 234 222 219 212 233 216 137 212 232 231 248 212 212 221 221 208 252 262 156 134 143 237 295 282 239 222 280 32 308 213 201 210 204 214 203 198
167 181 183 181 195 200 208 210 237 255 249 287 209 255 229 198 211 208 228 216 212 234 255 211 184 225 178 193 236 222 268 355 318 255 16 275 154 212 189 188 205 194 196